EW9372 Weather Reports


Display with metric or nautical units.
time (UTC)temp
F
wind
direction
speed
MPH
gust
MPH
rain 1hr
in
rain 24hr
in
rain mn
in
humidity
%
barometer
mb
20260903071811 64 186 1.0 3.0 0.00 0.00 0.00 66 1013.8
20260903071307 64 191 1.0 3.0 0.00 0.00 0.00 66 1013.8
20260903070808 64 204 1.0 3.0 0.00 0.00 0.00 66 1014.0
20260903070303 64 199 1.0 3.0 0.00 0.00 0.00 66 1013.9
20260903065750 64 190 1.0 3.0 0.00 0.00 0.00 65 1013.9
20260903065250 64 196 1.0 3.0 0.00 0.00 0.00 65 1013.8
20260903064756 65 210 2.0 2.0 0.00 0.00 0.00 65 1013.8
20260903063319 65 205 1.0 3.0 0.00 0.00 0.00 64 1014.0
20260903062808 65 207 1.0 3.0 0.00 0.00 0.00 63 1014.0
20260903062803 65 217 0.0 3.0 0.00 0.00 0.00 64 1014.0
20260903061802 65 209 1.0 3.0 0.00 0.00 0.00 63 1014.0
20260903061301 66 173 1.0 0.0 0.00 0.00 0.00 63 1014.0
20260903055840 66 216 0.0 2.0 0.00 0.00 0.00 63 1014.2
20260903055337 66 225 0.0 0.0 0.00 0.00 0.00 62 1014.1
20260903054251 67 220 0.0 0.0 0.00 0.00 0.00 61 1014.2
20260903053746 67 221 0.0 0.0 0.00 0.00 0.00 60 1014.2
20260903053238 67 222 1.0 4.0 0.00 0.00 0.00 61 1014.2
20260903052727 67 222 2.0 4.0 0.00 0.00 0.00 60 1014.2
20260903052220 67 231 2.0 1.0 0.00 0.00 0.00 60 1014.2
20260903051045 68 223 1.0 3.0 0.00 0.00 0.00 59 1014.3
20260903050544 68 222 0.0 2.0 0.00 0.00 0.00 58 1014.3
20260903050041 68 225 0.0 0.0 0.00 0.00 0.00 58 1014.3
20260903045517 68 225 0.0 0.0 0.00 0.00 0.00 57 1014.3
20260903045018 69 225 0.0 0.0 0.00 0.00 0.00 57 1014.3
20260903043847 69 227 2.0 4.0 0.00 0.00 0.00 56 1014.2
20260903043339 69 232 2.0 3.0 0.00 0.00 0.00 56 1014.2
20260903042009 69 226 2.0 4.0 0.00 0.00 0.00 56 1014.1
20260903041506 69 234 2.0 2.0 0.00 0.00 0.00 55 1014.1
20260903040039 70 236 2.0 3.0 0.00 0.00 0.00 56 1013.9
20260903040035 70 244 1.0 4.0 0.00 0.00 0.00 56 1014.0
20260903034954 70 238 1.0 3.0 0.00 0.00 0.00 56 1013.8
20260903033549 70 242 3.0 6.0 0.00 0.00 0.00 56 1013.6
20260903033045 70 236 3.0 6.0 0.00 0.00 0.00 57 1013.7
20260903032544 70 232 4.0 6.0 0.00 0.00 0.00 57 1013.5
20260903032042 70 252 3.0 5.0 0.00 0.00 0.00 56 1013.5
20260903030522 71 236 3.0 7.0 0.00 0.00 0.00 56 1013.5
20260903030017 71 238 3.0 4.0 0.00 0.00 0.00 55 1013.5
20260903024516 72 235 3.0 3.0 0.00 0.00 0.00 55 1013.5
20260903022927 73 235 3.0 4.0 0.00 0.00 0.00 55 1013.6
20260903021530 74 245 3.0 5.0 0.00 0.00 0.00 54 1013.6
20260903021036 74 232 4.0 2.0 0.00 0.00 0.00 53 1013.6
20260903015926 75 234 4.0 11.0 0.00 0.00 0.00 52 1013.6
20260903015431 76 256 3.0 9.0 0.00 0.00 0.00 50 1013.8
20260903015425 75 232 3.0 11.0 0.00 0.00 0.00 50 1013.7
20260903013528 77 213 3.0 7.0 0.00 0.00 0.00 49 1014.1
20260903012526 77 215 4.0 7.0 0.00 0.00 0.00 48 1014.1
20260903012028 77 241 4.0 5.0 0.00 0.00 0.00 48 1014.1
20260903010816 78 232 4.0 11.0 0.00 0.00 0.00 47 1014.0
20260903010313 78 240 2.0 7.0 0.00 0.00 0.00 47 1014.0
20260903005812 78 213 3.0 1.0 0.00 0.00 0.00 47 1014.0
20260903004710 77 221 3.0 7.0 0.00 0.00 0.00 48 1014.0
20260903004205 77 214 3.0 0.0 0.00 0.00 0.00 48 1014.0
20260903002929 79 234 3.0 10.0 0.00 0.00 0.00 47 1014.2
20260903002924 78 250 5.0 12.0 0.00 0.00 0.00 47 1014.2
20260903000946 78 248 5.0 0.0 0.00 0.00 0.00 46 1014.4
20260903000046 79 244 4.0 7.0 0.00 0.00 0.00 46 1014.4
20260902234722 79 232 6.0 13.0 0.00 0.00 0.00 47 1014.5
20260902233720 79 217 6.0 6.0 0.00 0.00 0.00 47 1014.4
20260902232429 79 216 4.0 7.0 0.00 0.00 0.00 47 1014.5
20260902231619 79 228 5.0 1.0 0.00 0.00 0.00 48 1014.4
20260902225748 78 9 2.0 5.0 0.00 0.00 0.00 47 1014.6
20260902225249 78 244 4.0 3.0 0.00 0.00 0.00 47 1014.8
20260902224143 79 243 3.0 11.0 0.00 0.00 0.00 46 1015.0
20260902222946 79 234 2.0 11.0 0.00 0.00 0.00 46 1014.9
20260902222443 79 230 3.0 7.0 0.00 0.00 0.00 45 1014.9
20260902221944 80 244 3.0 1.0 0.00 0.00 0.00 44 1015.1
20260902220819 80 13 1.0 5.0 0.00 0.00 0.00 46 1015.1
20260902220314 80 292 3.0 1.0 0.00 0.00 0.00 44 1015.1
20260902214902 80 230 3.0 3.0 0.00 0.00 0.00 45 1015.3
20260902214104 77 239 3.0 7.0 0.00 0.00 0.00 50 1015.3
20260902213100 77 242 3.0 4.0 0.00 0.00 0.00 50 1015.3
20260902211556 76 244 4.0 9.0 0.00 0.00 0.00 50 1015.3
20260902211050 77 223 3.0 6.0 0.00 0.00 0.00 51 1015.4
20260902205717 76 243 5.0 12.0 0.00 0.00 0.00 52 1015.5
20260902205216 78 241 4.0 11.0 0.00 0.00 0.00 50 1015.6
20260902204722 77 229 2.0 5.0 0.00 0.00 0.00 52 1015.6
20260902203331 76 236 3.0 6.0 0.00 0.00 0.00 53 1015.8
20260902203327 76 239 3.0 10.0 0.00 0.00 0.00 51 1015.8
20260902201418 74 239 2.0 10.0 0.00 0.00 0.00 56 1015.8
20260902200916 74 234 2.0 10.0 0.00 0.00 0.00 56 1015.8
20260902200417 74 238 1.0 6.0 0.00 0.00 0.00 55 1016.0
20260902195917 74 238 2.0 1.0 0.00 0.00 0.00 56 1016.1
20260902195301 74 242 1.0 4.0 0.00 0.00 0.00 56 1016.1
20260902194255 74 243 2.0 0.0 0.00 0.00 0.00 55 1016.1
20260902193053 73 232 1.0 4.0 0.00 0.00 0.00 56 1016.3
20260902192549 73 232 1.0 4.0 0.00 0.00 0.00 57 1016.5
20260902191407 72 237 2.0 6.0 0.00 0.00 0.00 58 1016.6
20260902190908 72 246 1.0 3.0 0.00 0.00 0.00 58 1016.7
20260902190355 73 242 2.0 0.0 0.00 0.00 0.00 58 1016.7
20260902185120 72 232 2.0 3.0 0.00 0.00 0.00 59 1016.6
20260902183806 72 233 1.0 5.0 0.00 0.00 0.00 59 1016.6
20260902183801 73 218 1.0 3.0 0.00 0.00 0.00 58 1016.6
20260902182801 72 234 2.0 6.0 0.00 0.00 0.00 58 1016.6
20260902182300 73 232 2.0 6.0 0.00 0.00 0.00 57 1016.6
20260902181801 73 243 3.0 3.0 0.00 0.00 0.00 58 1016.7
20260902180453 72 250 2.0 8.0 0.00 0.00 0.00 59 1016.6
20260902175958 72 134 0.0 2.0 0.00 0.00 0.00 59 1016.7
20260902175953 72 238 1.0 6.0 0.00 0.00 0.00 60 1016.7
20260902174946 72 13 1.0 1.0 0.00 0.00 0.00 60 1016.8
20260902173716 71 221 2.0 6.0 0.00 0.00 0.00 62 1016.7
20260902173214 71 257 1.0 3.0 0.00 0.00 0.00 62 1016.6
20260902172015 70 254 3.0 1.0 0.00 0.00 0.00 62 1016.5
20260902170931 71 215 2.0 6.0 0.00 0.00 0.00 62 1016.4
20260902170426 70 227 2.0 6.0 0.00 0.00 0.00 63 1016.4
20260902165925 69 250 1.0 5.0 0.00 0.00 0.00 64 1016.4
20260902165426 69 238 1.0 5.0 0.00 0.00 0.00 65 1016.3
20260902165420 69 217 1.0 5.0 0.00 0.00 0.00 63 1016.3
20260902164417 69 222 1.0 4.0 0.00 0.00 0.00 66 1016.3
20260902163914 68 201 2.0 0.0 0.00 0.00 0.00 66 1016.2
20260902162532 67 217 2.0 7.0 0.00 0.00 0.00 68 1016.0
20260902162012 67 242 2.0 7.0 0.00 0.00 0.00 68 1015.9
20260902162007 67 232 2.0 1.0 0.00 0.00 0.00 69 1016.0
20260902160239 67 212 0.0 4.0 0.00 0.00 0.00 67 1016.1
20260902155730 68 146 0.0 3.0 0.00 0.00 0.00 66 1016.1
20260902155233 65 167 1.0 1.0 0.00 0.00 0.00 69 1016.0
20260902155229 67 123 1.0 3.0 0.00 0.00 0.00 67 1016.1
20260902154246 62 203 0.0 2.0 0.00 0.00 0.00 75 1015.9
20260902153234 62 204 0.0 2.0 0.00 0.00 0.00 75 1015.9
20260902152226 61 222 0.0 0.0 0.00 0.00 0.00 76 1015.7
20260902152222 61 219 0.0 0.0 0.00 0.00 0.00 77 1015.7
20260902150418 60 165 0.0 0.0 0.00 0.00 0.00 77 1015.7
20260902144950 60 163 0.0 1.0 0.00 0.00 0.00 78 1015.6
20260902144455 60 161 0.0 2.0 0.00 0.00 0.00 79 1015.4
20260902144450 60 161 0.0 2.0 0.00 0.00 0.00 79 1015.6
20260902143430 60 148 0.0 0.0 0.00 0.00 0.00 79 1015.3
20260902142247 60 137 0.0 1.0 0.00 0.00 0.00 79 1015.3
20260902141737 60 140 0.0 1.0 0.00 0.00 0.00 80 1015.4
20260902141215 59 140 0.0 0.0 0.00 0.00 0.00 80 1015.5
20260902140034 59 152 0.0 1.0 0.00 0.00 0.00 80 1015.5
20260902135515 59 153 0.0 2.0 0.00 0.00 0.00 80 1015.3
20260902134954 59 161 0.0 2.0 0.00 0.00 0.00 80 1015.3
20260902134450 59 167 0.0 1.0 0.00 0.00 0.00 81 1015.2
20260902133953 59 167 0.0 1.0 0.00 0.00 0.00 81 1015.0
20260902133441 59 171 0.0 1.0 0.00 0.00 0.00 81 1015.0
20260902132937 59 177 0.0 0.0 0.00 0.00 0.00 81 1014.9
20260902131505 59 173 0.0 1.0 0.00 0.00 0.00 81 1014.9
20260902130948 59 173 0.0 1.0 0.00 0.00 0.00 81 1014.9
20260902130437 59 175 0.0 0.0 0.00 0.00 0.00 81 1014.9
20260902125748 60 182 0.0 0.0 0.00 0.00 0.00 81 1014.8
20260902125452 59 182 0.0 0.0 0.00 0.00 0.00 81 1014.8
20260902123335 60 182 0.0 0.0 0.00 0.00 0.00 81 1014.9
20260902122249 60 182 0.0 2.0 0.00 0.00 0.00 81 1014.8
20260902121741 60 176 0.0 2.0 0.00 0.00 0.00 81 1014.7
20260902121235 60 188 0.0 2.0 0.00 0.00 0.00 81 1014.7
20260902120658 60 184 1.0 0.0 0.00 0.00 0.00 81 1014.7
20260902115411 60 157 0.0 0.0 0.00 0.00 0.00 80 1014.9
20260902115405 60 166 1.0 4.0 0.00 0.00 0.00 81 1014.8
20260902113445 60 184 1.0 4.0 0.00 0.00 0.00 80 1014.6
20260902113441 60 182 0.0 3.0 0.00 0.00 0.00 80 1014.7
20260902112422 60 175 1.0 4.0 0.00 0.00 0.00 80 1014.5
20260902111923 60 169 1.0 1.0 0.00 0.00 0.00 80 1014.5
20260902110656 60 184 1.0 2.0 0.00 0.00 0.00 79 1014.6
20260902110645 60 176 1.0 3.0 0.00 0.00 0.00 79 1014.5
20260902104648 60 204 1.0 4.0 0.00 0.00 0.00 78 1014.7
20260902104143 60 197 1.0 1.0 0.00 0.00 0.00 78 1014.7
20260902102837 60 159 0.0 0.0 0.00 0.00 0.00 78 1014.8
20260902101613 60 194 1.0 4.0 0.00 0.00 0.00 77 1014.8
20260902101118 60 206 2.0 1.0 0.00 0.00 0.00 77 1014.9
20260902100100 60 203 2.0 7.0 0.00 0.00 0.00 77 1014.9
20260902095058 60 211 1.0 7.0 0.00 0.00 0.00 77 1015.0
20260902094559 60 175 1.0 3.0 0.00 0.00 0.00 77 1015.0
20260902094059 60 184 1.0 1.0 0.00 0.00 0.00 77 1015.0
20260902092935 60 168 1.0 0.0 0.00 0.00 0.00 77 1015.0
20260902092930 60 165 1.0 5.0 0.00 0.00 0.00 77 1015.0
20260902091631 60 181 1.0 5.0 0.00 0.00 0.00 77 1014.9
20260902091339 60 176 0.0 3.0 0.00 0.00 0.00 77 1014.9
20260902090129 60 182 1.0 5.0 0.00 0.00 0.00 77 1014.8
20260902085621 60 153 1.0 5.0 0.00 0.00 0.00 77 1014.7
20260902085121 60 160 1.0 2.0 0.00 0.00 0.00 77 1014.8
20260902083633 60 180 1.0 4.0 0.00 0.00 0.00 77 1014.9
20260902083127 60 178 1.0 3.0 0.00 0.00 0.00 77 1014.9
20260902083123 60 171 1.0 4.0 0.00 0.00 0.00 77 1014.9
20260902081310 60 184 1.0 1.0 0.00 0.00 0.00 76 1014.9
20260902075749 60 146 2.0 7.0 0.00 0.00 0.00 76 1014.7
20260902075255 60 198 3.0 3.0 0.00 0.00 0.00 76 1014.7
20260902075249 60 205 2.0 6.0 0.00 0.00 0.00 76 1014.8
20260902073554 61 201 2.0 6.0 0.00 0.00 0.00 76 1014.3
20260902073053 61 178 2.0 1.0 0.00 0.00 0.00 76 1014.4
20260902072251 61 182 1.0 3.0 0.00 0.00 0.00 76 1014.5